Powrót do katalogu

STARLINK-32668

AktywnyŁącznośćVLEO
NORAD 62212·PAYLOAD·🇺🇸 United States

Wystrzelony Dec 4, 2024 z Cape Canaveral Space Force Station

Loading…

Następne Przeloty (najbliższe 24 godziny)

TLE

ŚwieżeSource: CelesTrak SupGP

Epoka: Sep 14, 2026, 21:23 UTC

1 62212C 24229W   26257.89145833  .00015576  00000+0  56426-3 0  2571
2 62212  43.0000 278.9700 0001480 264.2997 135.6359 15.27565675    19

Śledź STARLINK-32668 w czasie rzeczywistym z AllMySat

Download on the App Store